ANA1723 ROAH-ROMY

Flight info

Callsign ANA1723
Flight time 0h 33m
Altitude 26000
Route GANJU Y576 YUTAH
Aircraft B738/M-SDE2E3FGHIRWXY/LB1

Departure

Time 2026-04-26 22:29
Airport Naha International Airport (ROAH)

Arrival

Time 2026-04-26 23:02
Airport Miyako Airport (ROMY)
Time Latitude Longitude Altitude Speed Heading
2026-04-26 21:53 26.20953 127.64967 22 ft 0 kts 87°
2026-04-26 22:15 26.20953 127.64954 20 ft 3 kts 87°
2026-04-26 22:16 26.20952 127.64932 20 ft 3 kts 87°
2026-04-26 22:16 26.20951 127.64912 19 ft 2 kts 87°
2026-04-26 22:16 26.20951 127.64894 19 ft 0 kts 114°
2026-04-26 22:18 26.20953 127.64889 20 ft 3 kts 134°
2026-04-26 22:18 26.20968 127.64881 19 ft 2 kts 197°
2026-04-26 22:19 26.20980 127.64888 23 ft 0 kts 239°
2026-04-26 22:19 26.20979 127.64887 23 ft 0 kts 234°
2026-04-26 22:19 26.20971 127.64885 19 ft 3 kts 189°
2026-04-26 22:19 26.20929 127.64862 21 ft 10 kts 228°
2026-04-26 22:20 26.20910 127.64760 17 ft 17 kts 265°
2026-04-26 22:20 26.20905 127.64667 15 ft 19 kts 269°
2026-04-26 22:20 26.20925 127.64479 17 ft 18 kts 273°
2026-04-26 22:20 26.20849 127.64383 17 ft 17 kts 195°
2026-04-26 22:21 26.20733 127.64353 16 ft 17 kts 193°
2026-04-26 22:21 26.20621 127.64325 16 ft 16 kts 193°
2026-04-26 22:21 26.20512 127.64308 16 ft 16 kts 179°
2026-04-26 22:21 26.20403 127.64312 16 ft 16 kts 176°
2026-04-26 22:22 26.20331 127.64245 16 ft 15 kts 263°
2026-04-26 22:22 26.20325 127.64130 16 ft 15 kts 267°
2026-04-26 22:22 26.20320 127.64009 16 ft 16 kts 268°
2026-04-26 22:22 26.20316 127.63882 16 ft 17 kts 268°
2026-04-26 22:23 26.20312 127.63747 16 ft 18 kts 268°
2026-04-26 22:23 26.20308 127.63608 16 ft 18 kts 267°
2026-04-26 22:23 26.20298 127.63474 16 ft 17 kts 250°
2026-04-26 22:23 26.20194 127.63436 16 ft 17 kts 181°
2026-04-26 22:24 26.20082 127.63441 16 ft 16 kts 177°
2026-04-26 22:24 26.19973 127.63447 16 ft 15 kts 178°
2026-04-26 22:24 26.19869 127.63451 16 ft 15 kts 178°
2026-04-26 22:24 26.19757 127.63456 16 ft 18 kts 178°
2026-04-26 22:25 26.19622 127.63465 16 ft 21 kts 177°
2026-04-26 22:25 26.19465 127.63472 16 ft 24 kts 178°
2026-04-26 22:25 26.19289 127.63478 15 ft 27 kts 178°
2026-04-26 22:25 26.19096 127.63489 16 ft 28 kts 176°
2026-04-26 22:26 26.18904 127.63498 16 ft 27 kts 178°
2026-04-26 22:26 26.18724 127.63505 16 ft 25 kts 177°
2026-04-26 22:26 26.18555 127.63513 16 ft 23 kts 178°
2026-04-26 22:26 26.18397 127.63521 16 ft 23 kts 177°
2026-04-26 22:27 26.18242 127.63528 16 ft 22 kts 178°
2026-04-26 22:27 26.18093 127.63534 16 ft 21 kts 178°
2026-04-26 22:27 26.17956 127.63542 16 ft 15 kts 177°
2026-04-26 22:27 26.17889 127.63476 16 ft 14 kts 262°
2026-04-26 22:28 26.17907 127.63371 18 ft 16 kts 321°
2026-04-26 22:28 26.18185 127.63341 18 ft 75 kts 358°
2026-04-26 22:28 26.18917 127.63304 14 ft 136 kts 356°
2026-04-26 22:28 26.20013 127.63253 219 ft 169 kts 354°
2026-04-26 22:29 26.21123 127.63023 1075 ft 157 kts 337°
2026-04-26 22:29 26.22120 127.62519 1814 ft 161 kts 336°
2026-04-26 22:29 26.23231 127.62000 2188 ft 187 kts 337°
2026-04-26 22:29 26.24518 127.61413 2437 ft 212 kts 337°
2026-04-26 22:30 26.25944 127.60766 2742 ft 227 kts 337°
2026-04-26 22:30 26.27432 127.60096 3221 ft 237 kts 336°
2026-04-26 22:30 26.28478 127.59626 3382 ft 249 kts 337°
2026-04-26 22:30 26.30117 127.58891 3973 ft 257 kts 337°
2026-04-26 22:31 26.31782 127.58146 4783 ft 260 kts 337°
2026-04-26 22:31 26.33476 127.57390 5517 ft 264 kts 337°
2026-04-26 22:31 26.35194 127.56623 6291 ft 266 kts 336°
2026-04-26 22:31 26.36923 127.55851 7008 ft 270 kts 336°
2026-04-26 22:32 26.38667 127.55042 7711 ft 273 kts 330°
2026-04-26 22:32 26.40088 127.53665 8379 ft 275 kts 303°
2026-04-26 22:32 26.40794 127.51693 9085 ft 278 kts 278°
2026-04-26 22:32 26.40659 127.49541 9776 ft 284 kts 253°
2026-04-26 22:33 26.39710 127.47589 10346 ft 295 kts 234°
2026-04-26 22:33 26.36803 127.43896 10691 ft 337 kts 230°
2026-04-26 22:33 26.35222 127.41914 11132 ft 345 kts 231°
2026-04-26 22:34 26.33608 127.39915 11760 ft 348 kts 228°
2026-04-26 22:34 26.31932 127.38043 12415 ft 350 kts 226°
2026-04-26 22:34 26.30133 127.36110 13089 ft 353 kts 226°
2026-04-26 22:34 26.28361 127.34214 13737 ft 356 kts 226°
2026-04-26 22:35 26.26569 127.32285 14322 ft 359 kts 227°
2026-04-26 22:35 26.24776 127.30342 14876 ft 362 kts 227°
2026-04-26 22:35 26.22963 127.28370 15487 ft 365 kts 227°
2026-04-26 22:35 26.21138 127.26378 16078 ft 368 kts 228°
2026-04-26 22:36 26.19302 127.24373 16647 ft 372 kts 228°
2026-04-26 22:36 26.17444 127.22344 17232 ft 375 kts 228°
2026-04-26 22:36 26.15572 127.20301 17817 ft 378 kts 228°
2026-04-26 22:36 26.13687 127.18246 18361 ft 382 kts 229°
2026-04-26 22:37 26.11888 127.16067 18832 ft 381 kts 238°
2026-04-26 22:37 26.10434 127.13605 19358 ft 380 kts 242°
2026-04-26 22:37 26.09055 127.11087 19872 ft 382 kts 243°
2026-04-26 22:37 26.07698 127.08584 20353 ft 385 kts 242°
2026-04-26 22:38 26.06299 127.06028 20821 ft 388 kts 242°
2026-04-26 22:38 26.04879 127.03466 21288 ft 391 kts 242°
2026-04-26 22:38 26.03438 127.00893 21755 ft 393 kts 242°
2026-04-26 22:38 26.01982 126.98312 22238 ft 395 kts 241°
2026-04-26 22:39 26.00517 126.95726 22813 ft 395 kts 241°
2026-04-26 22:39 25.99059 126.93157 23467 ft 392 kts 241°
2026-04-26 22:39 25.97607 126.90602 24036 ft 390 kts 242°
2026-04-26 22:39 25.96164 126.88063 24637 ft 385 kts 242°
2026-04-26 22:40 25.94742 126.85563 25285 ft 380 kts 242°
2026-04-26 22:40 25.93338 126.83093 25847 ft 378 kts 242°
2026-04-26 22:40 25.91931 126.80617 25998 ft 378 kts 242°
2026-04-26 22:40 25.90532 126.78156 26031 ft 375 kts 242°
2026-04-26 22:41 25.89138 126.75704 26040 ft 377 kts 242°
2026-04-26 22:41 25.87737 126.73245 26058 ft 377 kts 242°
2026-04-26 22:41 25.86351 126.70766 26044 ft 377 kts 243°
2026-04-26 22:41 25.85035 126.68245 26047 ft 377 kts 244°
2026-04-26 22:42 25.83748 126.65708 26048 ft 377 kts 244°
2026-04-26 22:42 25.82469 126.63170 26045 ft 377 kts 244°
2026-04-26 22:42 25.81186 126.60631 26042 ft 377 kts 244°
2026-04-26 22:42 25.79898 126.58097 26043 ft 377 kts 244°
2026-04-26 22:43 25.78610 126.55572 26043 ft 376 kts 244°
2026-04-26 22:43 25.77314 126.53042 26044 ft 376 kts 244°
2026-04-26 22:43 25.76022 126.50525 26042 ft 376 kts 244°
2026-04-26 22:43 25.74727 126.48005 26034 ft 376 kts 244°
2026-04-26 22:44 25.73449 126.45522 26041 ft 375 kts 244°
2026-04-26 22:44 25.72154 126.43007 26046 ft 375 kts 244°
2026-04-26 22:44 25.70860 126.40495 26050 ft 375 kts 244°
2026-04-26 22:44 25.69548 126.37949 26045 ft 376 kts 244°
2026-04-26 22:45 25.68269 126.35471 26047 ft 376 kts 244°
2026-04-26 22:45 25.66978 126.32971 26031 ft 368 kts 244°
2026-04-26 22:45 25.65725 126.30549 25927 ft 359 kts 244°
2026-04-26 22:45 25.64494 126.28169 25694 ft 353 kts 244°
2026-04-26 22:46 25.63276 126.25813 25322 ft 351 kts 244°
2026-04-26 22:46 25.62067 126.23472 24978 ft 349 kts 244°
2026-04-26 22:46 25.60864 126.21146 24606 ft 347 kts 244°
2026-04-26 22:46 25.59665 126.18828 24221 ft 347 kts 244°
2026-04-26 22:47 25.58466 126.16511 23825 ft 347 kts 244°
2026-04-26 22:47 25.57267 126.14195 23414 ft 346 kts 244°
2026-04-26 22:47 25.56071 126.11887 23008 ft 345 kts 244°
2026-04-26 22:47 25.54880 126.09592 22621 ft 343 kts 244°
2026-04-26 22:48 25.53696 126.07310 22244 ft 341 kts 244°
2026-04-26 22:48 25.52520 126.05046 21875 ft 339 kts 244°
2026-04-26 22:48 25.51350 126.02793 21512 ft 337 kts 244°
2026-04-26 22:48 25.50185 126.00551 21146 ft 335 kts 244°
2026-04-26 22:49 25.49030 125.98328 20689 ft 332 kts 244°
2026-04-26 22:49 25.47876 125.96110 20056 ft 333 kts 244°
2026-04-26 22:49 25.46723 125.93891 19486 ft 332 kts 243°
2026-04-26 22:49 25.45576 125.91688 18991 ft 329 kts 243°
2026-04-26 22:50 25.44439 125.89507 18506 ft 326 kts 243°
2026-04-26 22:50 25.43313 125.87348 17848 ft 325 kts 243°
2026-04-26 22:50 25.42157 125.85126 16677 ft 340 kts 243°
2026-04-26 22:50 25.40962 125.82832 15803 ft 346 kts 243°
2026-04-26 22:51 25.39765 125.80539 15165 ft 343 kts 242°
2026-04-26 22:51 25.38577 125.78267 14603 ft 338 kts 242°
2026-04-26 22:51 25.37407 125.76028 14025 ft 335 kts 242°
2026-04-26 22:51 25.36258 125.73830 13378 ft 333 kts 242°
2026-04-26 22:52 25.34935 125.71737 12674 ft 335 kts 226°
2026-04-26 22:52 25.33078 125.70184 12028 ft 335 kts 216°
2026-04-26 22:52 25.31119 125.68798 11417 ft 333 kts 214°
2026-04-26 22:52 25.29162 125.67441 10799 ft 331 kts 214°
2026-04-26 22:53 25.27220 125.66094 10210 ft 329 kts 214°
2026-04-26 22:53 25.25313 125.64766 9986 ft 315 kts 214°
2026-04-26 22:53 25.23514 125.63507 9864 ft 298 kts 214°
2026-04-26 22:53 25.21805 125.62308 9718 ft 284 kts 214°
2026-04-26 22:54 25.20157 125.61146 9347 ft 279 kts 214°
2026-04-26 22:54 25.18524 125.59993 8892 ft 278 kts 214°
2026-04-26 22:54 25.16911 125.58853 8414 ft 273 kts 214°
2026-04-26 22:54 25.15315 125.57725 7782 ft 272 kts 214°
2026-04-26 22:55 25.13721 125.56598 7112 ft 272 kts 214°
2026-04-26 22:55 25.12126 125.55471 6496 ft 271 kts 214°
2026-04-26 22:55 25.10539 125.54350 5930 ft 271 kts 214°
2026-04-26 22:55 25.08968 125.53241 5564 ft 264 kts 214°
2026-04-26 22:56 25.07435 125.52160 5268 ft 260 kts 214°
2026-04-26 22:56 25.05936 125.51102 4996 ft 259 kts 214°
2026-04-26 22:56 25.04395 125.50014 4730 ft 261 kts 214°
2026-04-26 22:56 25.02858 125.48929 4445 ft 264 kts 214°
2026-04-26 22:57 25.01334 125.47854 4165 ft 262 kts 214°
2026-04-26 22:57 24.99781 125.46760 3885 ft 261 kts 214°
2026-04-26 22:57 24.98292 125.45711 3642 ft 252 kts 214°
2026-04-26 22:57 24.96864 125.44706 3521 ft 236 kts 215°
2026-04-26 22:58 24.95516 125.43757 3414 ft 227 kts 215°
2026-04-26 22:58 24.94190 125.42823 3320 ft 225 kts 214°
2026-04-26 22:58 24.92866 125.41891 3232 ft 225 kts 214°
2026-04-26 22:58 24.91584 125.40987 3094 ft 209 kts 216°
2026-04-26 22:59 24.90449 125.40099 2935 ft 194 kts 219°
2026-04-26 22:59 24.89409 125.39208 2695 ft 186 kts 220°
2026-04-26 22:59 24.88401 125.38329 2401 ft 187 kts 220°
2026-04-26 22:59 24.87393 125.37459 2210 ft 179 kts 219°
2026-04-26 23:00 24.86404 125.36616 2056 ft 186 kts 220°
2026-04-26 23:00 24.85400 125.35685 1841 ft 190 kts 222°
2026-04-26 23:00 24.84420 125.34727 1687 ft 185 kts 223°
2026-04-26 23:00 24.83447 125.33875 1493 ft 175 kts 215°
2026-04-26 23:01 24.82417 125.33138 1083 ft 177 kts 214°
2026-04-26 23:01 24.81457 125.32337 849 ft 166 kts 221°
2026-04-26 23:01 24.80625 125.31527 621 ft 155 kts 220°
2026-04-26 23:01 24.79786 125.30823 422 ft 149 kts 218°
2026-04-26 23:02 24.78990 125.30130 207 ft 143 kts 219°
2026-04-26 23:02 24.78264 125.29496 147 ft 106 kts 218°
2026-04-26 23:02 24.77996 125.29261 143 ft 0 kts 218°
2026-04-26 23:02 24.77943 125.29215 141 ft 20 kts 218°
2026-04-26 23:03 24.77815 125.29104 142 ft 23 kts 218°
2026-04-26 23:03 24.77693 125.28997 142 ft 22 kts 217°
2026-04-26 23:03 24.77588 125.28956 142 ft 10 kts 216°
2026-04-26 23:03 24.77626 125.28941 142 ft 11 kts 41°
2026-04-26 23:04 24.77688 125.28999 142 ft 14 kts 39°
2026-04-26 23:04 24.77779 125.29079 142 ft 20 kts 39°
2026-04-26 23:04 24.77908 125.29190 141 ft 27 kts 37°
2026-04-26 23:04 24.78051 125.29312 144 ft 25 kts 38°
2026-04-26 23:05 24.78092 125.29422 144 ft 16 kts 122°
2026-04-26 23:05 24.78026 125.29518 142 ft 11 kts 128°
2026-04-26 23:05 24.77985 125.29584 142 ft 10 kts 123°
2026-04-26 23:05 24.77950 125.29634 143 ft 3 kts 128°
2026-04-26 23:06 24.77940 125.29647 144 ft 0 kts 128°